Kansas City International, MO

4:52 AM CDT on July 24, 2017 (GMT -0500)
Kansas City International

Weather History for KMCI - October, 2013

Change the Weather History Date:

Friday, October 25, 2013

  Actual Average Record
Temperature  
Mean Temperature 43 °F 53 °F  
Max Temperature 56 °F 64 °F 88 °F (1939)
Min Temperature 29 °F 43 °F 28 °F (1994)
Degree Days  
Heating Degree Days 22 12  
Month to date heating degree days 256 213  
Since 1 July heating degree days 275 280  
Cooling Degree Days 0 0  
Month to date cooling degree days 28 24  
Year to date cooling degree days 1345 1356  
Moisture  
Dew Point 25 °F    
Average Humidity 56    
Maximum Humidity 85    
Minimum Humidity 27    
Precipitation  
Precipitation 0.00 in 0.09 in 1.12 in (1898)
Month to date precipitation 2.79 2.65  
Year to date precipitation 30.30 34.67  
Snow  
Snow 0.00 in 0.00 in 1.50 in (1898)
Month to date snowfall 0.0 0.1  
Since 1 July snowfall 0.0 0.1  
Since 1 September snowfall 0.0 0.1  
Snow Depth 0.00 in    
Sea Level Pressure  
Sea Level Pressure 30.36 in    
Wind  
Wind Speed 10 mph (SSW)    
Max Wind Speed 20 mph    
Max Gust Speed 26 mph    
Visibility 10 miles    
Events      
T = Trace of Precipitation, MM = Missing Value Source: NWS Daily Summary

Daily Weather History Graph

Daily Weather History Graph

Search for Another Location

Airport or City:

Trip Planner

Search our weather history database for the weather conditions in past years. The results will help you decide how hot, cold, wet, or windy it might be!

Date:

Astronomy

Oct. 25, 2013 Rise Set
Actual Time 7:39 AM CDT 6:25 PM CDT
Civil Twilight 7:11 AM CDT 6:53 PM CDT
Nautical Twilight 6:40 AM CDT 7:24 PM CDT
Astronomical Twilight 6:09 AM CDT 7:55 PM CDT
Moon 11:46 PM CDT (10/25) 1:19 PM CDT (10/25)
Length of Visible Light 11h 41m
Length of Day
10h 46m
Waning Gibbous, 62% of the Moon is Illuminated
Oct 25
Waning Gibbous
Oct 26
Last Quarter
Nov 3
New
Nov 9
First Quarter
Nov 17
Full

Hourly Weather History & Observations

Time (CDT) Temp. Windchill Dew Point Humidity Pressure Visibility Wind Dir Wind Speed Gust Speed Precip Events Conditions
12:53 AM 37.9 °F 34.4 °F 21.9 °F 53% 30.45 in 10.0 mi SW 4.6 mph - N/A   Scattered Clouds
1:53 AM 32.0 °F 24.8 °F 24.1 °F 73% 30.46 in 10.0 mi WSW 8.1 mph - N/A   Scattered Clouds
2:53 AM 32.0 °F 26.4 °F 25.0 °F 75% 30.46 in 10.0 mi WSW 5.8 mph - N/A   Clear
3:53 AM 33.1 °F 27.7 °F 25.0 °F 72% 30.45 in 10.0 mi SW 5.8 mph - N/A   Clear
4:53 AM 30.0 °F 24.1 °F 23.0 °F 75% 30.46 in 10.0 mi SSW 5.8 mph - N/A   Clear
5:53 AM 30.0 °F 24.1 °F 24.1 °F 79% 30.47 in 10.0 mi SSW 5.8 mph - N/A   Partly Cloudy
6:53 AM 28.9 °F 22.8 °F 24.1 °F 82% 30.48 in 10.0 mi South 5.8 mph - N/A   Partly Cloudy
7:53 AM 30.0 °F 24.1 °F 24.1 °F 79% 30.47 in 9.0 mi South 5.8 mph - N/A   Partly Cloudy
8:53 AM 34.0 °F 28.0 °F 28.0 °F 79% 30.48 in 10.0 mi SSW 6.9 mph - N/A   Partly Cloudy
9:53 AM 41.0 °F 35.8 °F 30.0 °F 65% 30.47 in 10.0 mi SSW 8.1 mph - N/A   Partly Cloudy
10:53 AM 44.8 °F 41.6 °F 28.0 °F 52% 30.45 in 10.0 mi South 5.8 mph - N/A   Partly Cloudy
11:53 AM 50.0 °F - 27.0 °F 41% 30.43 in 10.0 mi SSW 16.1 mph - N/A   Partly Cloudy
12:53 PM 52.0 °F - 24.1 °F 34% 30.40 in 10.0 mi South 15.0 mph 25.3 mph N/A   Partly Cloudy
1:53 PM 54.0 °F - 25.0 °F 33% 30.36 in 8.0 mi SSW 15.0 mph 23.0 mph N/A   Partly Cloudy
2:53 PM 55.9 °F - 24.1 °F 29% 30.33 in 10.0 mi SW 12.7 mph 25.3 mph N/A   Partly Cloudy
3:53 PM 55.9 °F - 23.0 °F 28% 30.29 in 10.0 mi SW 16.1 mph 24.2 mph N/A   Partly Cloudy
4:53 PM 55.0 °F - 24.1 °F 30% 30.26 in 10.0 mi South 13.8 mph - N/A   Partly Cloudy
5:53 PM 52.0 °F - 25.0 °F 35% 30.23 in 10.0 mi South 12.7 mph - N/A   Partly Cloudy
6:53 PM 43.0 °F 37.7 °F 26.1 °F 51% 30.22 in 10.0 mi South 9.2 mph - N/A   Partly Cloudy
7:53 PM 39.9 °F 33.9 °F 27.0 °F 60% 30.22 in 10.0 mi South 9.2 mph - N/A   Clear
8:53 PM 43.0 °F 37.2 °F 27.0 °F 53% 30.20 in 10.0 mi SSW 10.4 mph - N/A   Clear
9:53 PM 45.0 °F 40.1 °F 26.1 °F 48% 30.19 in 10.0 mi SSW 9.2 mph - N/A   Clear
10:53 PM 46.0 °F 40.2 °F 27.0 °F 47% 30.17 in 10.0 mi SSW 12.7 mph - N/A   Mostly Cloudy
11:53 PM 48.0 °F - 28.9 °F 48% 30.13 in 10.0 mi SSW 16.1 mph - N/A   Partly Cloudy